DECAYED
Showing default

SPIRIT, 58468 (Decayed)

Orbit data source: Space-Track

SPIRIT, 58468 was a payload satellite owned by U Melb. (AU) in LEO that was launched on Fri, 01 Dec 2023 UTC via an FALCON 9 launch vehicle from the Air Force Western Test Range (AFWTR). Payload-class satellites include a variety of spacecraft equipped with specific instruments for various scientific and technological missions. These include communications satellites like Starlink; space stations such as the ISS; scientific satellites like the Hubble; Earth observation satellites from companies like Planet Labs, Umbra, and HawkEye 360; GPS; miniature CubeSats for education and research; and military/defense satellites.

Not visible in the next 10 days
Identifier
58468, 2023-185G
Orbit
Decayed
Country
Flag of AUAU / AUS
Related business
Manufacturer
U Melb.
Mission
Decayed Amateur Astronomy
Bus & Motor
CUBESAT 6U, Unknown motor
Mass
11.5 kg wet, 11.5 kg dry
Launch date (UTC)
2023-12-01 (3 years ago)
Launch vehicle
FALCON 9
Launch site
Air Force Western Test Range (AFWTR)
Object type
Payload
Rocket body
Debris
Shape & HBR
Box, 0.2 m
Radar Cross Section
0.080 m², Medium (>0.1 m² and < 1m²)

Expand to show TLE details & history
Last TLE update: 1 month ago

TLE from 1 month ago
0 SPIRIT
1 58468U 23185G   26213.60561876  .06744580  24838-5  47046-3 0  9991
2 58468  97.3119 302.7880 0014157 311.8558  48.1532 16.39916138149835
Epoch: 2026-08-01T14:32Z
TLE epoch observation values (Epoch: 2026-08-01T14:32:05.460Z)
Latitude
-0.00009°
Longitude
134.55023°
Altitude
163.104 km
Speed
7.812 km/s
True Right ascension
20h 11m 09s
True Declination
0° 00' 00"
Sunlit
Object was in full shadow at epoch
Visualization orbit readout
Latitude
Unknown
Longitude
Unknown
Altitude
Unknown
Speed
Unknown
Apparent Right ascension
Unknown
Apparent Declination
Unknown
Sunlit
N/A
Visualization observer readout
Local Sidereal Time
15:21:43
Azimuth
Unknown
Elevation
Unknown
Doppler factor
Unknown
Orbital elements
Apogee altitude
172.089 km
Perigee altitude
153.569 km
Semi-major axis
6,540.966 km
Eccentricity
0.00142
Inclination
97.3119°
RAAN
302.788°
Arg. of periapsis
311.8558°
True anomaly
48.27419°
Mean anomaly
48.1532°
Eccentric anomaly
48.21368°
Mean motion
4.1028 °/min
Orbital period
87.74 mins
BSTAR
0.00047046
Loading maneuver chart data...
Computing Atmospheric mass density...
Loading historical data...
Loading historical data...
Loading historical data...
Loading historical data...
Loading historical data...
Loading historical data...
Loading historical data...

Documentation

Showing up to 5 results
|